FDB391 OMDB-OPFA

Flight info

Callsign FDB391
Flight time N/A
Altitude 37000
Route IVURO M428 TARBO Y220 ITLOB B505 PG G214 MOLTA J138 NINUK
Aircraft B38M/M-SDE1E2E3FGHIJ1LM3ORVWXYZ/HB1

Departure

Time N/A
Airport Dubai International Airport (OMDB)

Arrival

Time 2026-05-01 08:36
Airport Faisalabad International Airport (OPFA)
Time Latitude Longitude Altitude Speed Heading
2026-05-01 07:23 27.06668 64.79558 36814 ft 510 kts 79°
2026-05-01 07:24 27.08658 64.91273 36814 ft 510 kts 79°
2026-05-01 07:24 27.09982 64.99093 36813 ft 510 kts 79°
2026-05-01 07:25 27.11299 65.06908 36810 ft 510 kts 79°
2026-05-01 07:25 27.12605 65.14684 36810 ft 510 kts 79°
2026-05-01 07:26 27.13916 65.22517 36818 ft 510 kts 79°
2026-05-01 07:26 27.15221 65.30341 36806 ft 510 kts 79°
2026-05-01 07:27 27.16524 65.38180 36806 ft 510 kts 79°
2026-05-01 07:27 27.17822 65.46019 36808 ft 510 kts 79°
2026-05-01 07:28 27.19106 65.53798 36810 ft 510 kts 79°
2026-05-01 07:28 27.20394 65.61636 36799 ft 510 kts 79°
2026-05-01 07:29 27.21679 65.69474 36809 ft 510 kts 79°
2026-05-01 07:29 27.22960 65.77324 36794 ft 510 kts 79°
2026-05-01 07:30 27.24235 65.85160 36792 ft 510 kts 79°
2026-05-01 07:30 27.25508 65.93014 36805 ft 511 kts 79°
2026-05-01 07:31 27.26779 66.00871 36780 ft 511 kts 79°
2026-05-01 07:32 27.29926 66.20526 36781 ft 511 kts 79°
2026-05-01 07:33 27.31799 66.32297 36775 ft 512 kts 79°
2026-05-01 07:33 27.33672 66.44138 36783 ft 513 kts 79°
2026-05-01 07:34 27.35536 66.55992 36785 ft 513 kts 79°
2026-05-01 07:35 27.36777 66.63915 36766 ft 514 kts 79°
2026-05-01 07:35 27.38003 66.71780 36776 ft 514 kts 79°
2026-05-01 07:36 27.39235 66.79716 36762 ft 514 kts 79°
2026-05-01 07:36 27.40463 66.87647 36760 ft 514 kts 79°
2026-05-01 07:37 27.42294 66.99542 36756 ft 514 kts 79°
2026-05-01 07:37 27.43508 67.07456 36741 ft 512 kts 79°
2026-05-01 07:38 27.44707 67.15309 36727 ft 514 kts 79°
2026-05-01 07:39 27.46648 67.27155 36735 ft 512 kts 78°
2026-05-01 07:39 27.48699 67.38969 36702 ft 512 kts 78°
2026-05-01 07:40 27.50056 67.46846 36679 ft 512 kts 78°
2026-05-01 07:40 27.51410 67.54727 36667 ft 512 kts 78°
2026-05-01 07:41 27.52761 67.62615 36664 ft 513 kts 78°
2026-05-01 07:42 27.54771 67.74412 36655 ft 513 kts 78°
2026-05-01 07:42 27.56110 67.82300 36655 ft 513 kts 78°
2026-05-01 07:43 27.57446 67.90201 36655 ft 513 kts 78°
2026-05-01 07:43 27.59442 68.02065 36656 ft 513 kts 78°
2026-05-01 07:44 27.62085 68.17866 36654 ft 513 kts 78°
2026-05-01 07:45 27.63402 68.25782 36653 ft 513 kts 78°
2026-05-01 07:45 27.64712 68.33688 36656 ft 513 kts 78°
2026-05-01 07:46 27.66020 68.41608 36655 ft 513 kts 78°
2026-05-01 07:47 27.67964 68.53435 36659 ft 513 kts 78°
2026-05-01 07:47 27.69260 68.61355 36657 ft 514 kts 78°
2026-05-01 07:48 27.71199 68.73252 36652 ft 514 kts 78°
2026-05-01 07:48 27.72962 68.81020 36629 ft 507 kts 61°
2026-05-01 07:49 27.77647 68.91744 36655 ft 508 kts 60°
2026-05-01 07:50 27.80819 68.98892 36650 ft 508 kts 60°
2026-05-01 07:50 27.85552 69.09555 36662 ft 508 kts 60°
2026-05-01 07:51 27.88715 69.16697 36655 ft 508 kts 60°
2026-05-01 07:52 27.93436 69.27432 36657 ft 508 kts 60°
2026-05-01 07:52 27.96573 69.34600 36654 ft 508 kts 60°
2026-05-01 07:53 28.01267 69.45349 36659 ft 508 kts 60°
2026-05-01 07:53 28.04394 69.52523 36658 ft 508 kts 61°
2026-05-01 07:55 28.12166 69.70417 36659 ft 508 kts 60°
2026-05-01 07:56 28.19939 69.88391 36660 ft 508 kts 60°
2026-05-01 07:57 28.24580 69.99163 36655 ft 507 kts 61°
2026-05-01 07:58 28.30758 70.13545 36655 ft 507 kts 61°
2026-05-01 07:59 28.37163 70.27685 36616 ft 497 kts 46°
2026-05-01 08:00 28.51108 70.45001 36660 ft 495 kts 42°
2026-05-01 08:01 28.60483 70.56511 36662 ft 495 kts 42°
2026-05-01 08:02 28.67500 70.65149 36661 ft 495 kts 42°
2026-05-01 08:03 28.74485 70.73764 36661 ft 496 kts 42°
2026-05-01 08:03 28.81494 70.82428 36664 ft 496 kts 42°
2026-05-01 08:04 28.90839 70.94008 36662 ft 496 kts 42°
2026-05-01 08:05 28.97838 71.02702 36661 ft 496 kts 42°
2026-05-01 08:06 29.04840 71.11418 36674 ft 496 kts 42°
2026-05-01 08:07 29.13394 71.22094 36664 ft 497 kts 42°
2026-05-01 08:08 29.20398 71.30856 36665 ft 497 kts 42°
2026-05-01 08:09 29.29714 71.42564 36662 ft 498 kts 43°
2026-05-01 08:09 29.34314 71.48491 36666 ft 498 kts 43°
2026-05-01 08:10 29.43501 71.60321 36600 ft 499 kts 43°
2026-05-01 08:11 29.48064 71.66210 35591 ft 493 kts 42°
2026-05-01 08:11 29.52645 71.72130 34300 ft 495 kts 41°
2026-05-01 08:12 29.57192 71.78015 33265 ft 490 kts 41°
2026-05-01 08:12 29.59452 71.80945 32655 ft 489 kts 41°
2026-05-01 08:12 29.63942 71.86769 31571 ft 484 kts 41°
2026-05-01 08:13 29.66169 71.89661 31039 ft 483 kts 41°
2026-05-01 08:13 29.68367 71.92518 30513 ft 482 kts 41°
2026-05-01 08:13 29.72827 71.98321 29341 ft 481 kts 41°
2026-05-01 08:14 29.75012 72.01167 28724 ft 479 kts 41°
2026-05-01 08:14 29.77209 72.04031 28210 ft 475 kts 41°
2026-05-01 08:14 29.79391 72.06878 27696 ft 472 kts 41°
2026-05-01 08:14 29.81552 72.09698 27182 ft 468 kts 42°
2026-05-01 08:15 29.83701 72.12503 26681 ft 465 kts 42°
2026-05-01 08:15 29.87942 72.18050 25632 ft 459 kts 42°
2026-05-01 08:15 29.90049 72.20810 25117 ft 457 kts 43°
2026-05-01 08:16 29.92139 72.23549 24671 ft 453 kts 43°
2026-05-01 08:16 29.94213 72.26269 24210 ft 449 kts 43°
2026-05-01 08:16 29.96262 72.28958 23741 ft 446 kts 43°
2026-05-01 08:16 29.98304 72.31640 23284 ft 443 kts 44°
2026-05-01 08:17 30.00330 72.34302 22742 ft 439 kts 44°
2026-05-01 08:17 30.02333 72.36934 22278 ft 434 kts 44°
2026-05-01 08:17 30.04315 72.39543 21839 ft 429 kts 44°
2026-05-01 08:17 30.06273 72.42121 21402 ft 425 kts 44°
2026-05-01 08:18 30.08210 72.44673 20973 ft 421 kts 44°
2026-05-01 08:18 30.12036 72.49719 20126 ft 414 kts 45°
2026-05-01 08:19 30.15796 72.54683 19286 ft 408 kts 45°
2026-05-01 08:19 30.17663 72.57150 18871 ft 406 kts 45°
2026-05-01 08:19 30.19609 72.59424 18380 ft 400 kts 32°
2026-05-01 08:19 30.22034 72.60869 18030 ft 386 kts 13°
2026-05-01 08:20 30.24597 72.61735 17626 ft 382 kts 12°
2026-05-01 08:20 30.27133 72.62592 17221 ft 378 kts 11°
2026-05-01 08:20 30.29649 72.63428 16834 ft 374 kts 11°
2026-05-01 08:20 30.32149 72.64253 16445 ft 371 kts 11°
2026-05-01 08:21 30.34617 72.65065 16083 ft 367 kts 11°
2026-05-01 08:21 30.37064 72.65870 15699 ft 364 kts 11°
2026-05-01 08:21 30.39495 72.66670 15326 ft 362 kts 11°
2026-05-01 08:21 30.41905 72.67463 14952 ft 359 kts 11°
2026-05-01 08:22 30.44301 72.68252 14584 ft 356 kts 11°
2026-05-01 08:22 30.46680 72.69036 14217 ft 354 kts 11°
2026-05-01 08:22 30.49009 72.69803 13858 ft 352 kts 11°
2026-05-01 08:22 30.51392 72.70589 13485 ft 350 kts 11°
2026-05-01 08:23 30.53725 72.71359 13086 ft 348 kts 11°
2026-05-01 08:23 30.56012 72.72115 12704 ft 345 kts 11°
2026-05-01 08:23 30.58312 72.72874 12355 ft 342 kts 11°
2026-05-01 08:23 30.60591 72.73627 11993 ft 339 kts 11°
2026-05-01 08:24 30.62851 72.74375 11642 ft 336 kts 11°
2026-05-01 08:24 30.65093 72.75116 11299 ft 334 kts 12°
2026-05-01 08:24 30.67320 72.75853 10946 ft 332 kts 12°
2026-05-01 08:24 30.69536 72.76587 10610 ft 330 kts 12°
2026-05-01 08:25 30.71742 72.77317 10249 ft 329 kts 12°
2026-05-01 08:25 30.73930 72.78043 9984 ft 324 kts 12°
2026-05-01 08:25 30.76066 72.78751 9832 ft 315 kts 12°
2026-05-01 08:25 30.78147 72.79441 9684 ft 307 kts 12°
2026-05-01 08:26 30.80188 72.80118 9370 ft 305 kts 12°
2026-05-01 08:26 30.82227 72.80796 9005 ft 304 kts 12°
2026-05-01 08:26 30.84251 72.81467 8667 ft 302 kts 13°
2026-05-01 08:26 30.86267 72.82138 8354 ft 301 kts 13°
2026-05-01 08:27 30.88278 72.82806 8016 ft 300 kts 13°
2026-05-01 08:27 30.90284 72.83475 7652 ft 300 kts 14°
2026-05-01 08:27 30.92284 72.84141 7360 ft 298 kts 14°
2026-05-01 08:27 30.94271 72.84803 7049 ft 296 kts 14°
2026-05-01 08:28 30.96254 72.85464 6725 ft 295 kts 15°
2026-05-01 08:28 30.98226 72.86121 6412 ft 294 kts 15°
2026-05-01 08:28 31.00189 72.86776 6096 ft 293 kts 15°
2026-05-01 08:28 31.02153 72.87432 5762 ft 292 kts 15°
2026-05-01 08:29 31.04061 72.88068 5425 ft 284 kts 15°
2026-05-01 08:29 31.05928 72.88692 5134 ft 274 kts 16°
2026-05-01 08:29 31.07727 72.89293 4871 ft 266 kts 16°
2026-05-01 08:29 31.09474 72.89877 4804 ft 255 kts 16°
2026-05-01 08:30 31.11139 72.90433 4750 ft 243 kts 16°
2026-05-01 08:30 31.12770 72.90732 4629 ft 234 kts 354°
2026-05-01 08:30 31.14314 72.90296 4557 ft 221 kts 344°
2026-05-01 08:30 31.15734 72.89817 4457 ft 207 kts 344°
2026-05-01 08:31 31.17114 72.89340 4109 ft 208 kts 343°
2026-05-01 08:31 31.18507 72.88849 3726 ft 210 kts 343°
2026-05-01 08:31 31.19919 72.88346 3339 ft 213 kts 343°
2026-05-01 08:31 31.21336 72.87852 3016 ft 212 kts 348°
2026-05-01 08:32 31.22766 72.87907 2704 ft 208 kts 14°
2026-05-01 08:32 31.24085 72.88535 2502 ft 200 kts 30°
2026-05-01 08:32 31.25184 72.89426 2459 ft 183 kts 38°
2026-05-01 08:32 31.26177 72.90340 2509 ft 182 kts 38°
2026-05-01 08:33 31.27179 72.91239 2509 ft 182 kts 37°
2026-05-01 08:33 31.28187 72.92132 2325 ft 181 kts 37°
2026-05-01 08:33 31.29186 72.93017 2136 ft 180 kts 37°
2026-05-01 08:33 31.30167 72.93885 1932 ft 169 kts 37°
2026-05-01 08:34 31.31072 72.94686 1732 ft 160 kts 37°
2026-05-01 08:34 31.31949 72.95462 1520 ft 157 kts 36°
2026-05-01 08:34 31.32811 72.96225 1323 ft 155 kts 37°
2026-05-01 08:34 31.33667 72.96999 1118 ft 156 kts 40°
2026-05-01 08:35 31.34514 72.97803 906 ft 157 kts 38°
2026-05-01 08:35 31.35392 72.98578 679 ft 157 kts 38°
2026-05-01 08:35 31.36223 72.99298 602 ft 128 kts 37°
2026-05-01 08:35 31.36754 72.99751 603 ft 63 kts 36°
2026-05-01 08:36 31.37025 72.99982 601 ft 43 kts 36°
2026-05-01 08:36 31.37170 73.00106 601 ft 12 kts 30°
2026-05-01 08:36 31.37229 73.00062 601 ft 12 kts 278°
2026-05-01 08:36 31.37165 72.99981 599 ft 17 kts 216°
2026-05-01 08:37 31.37054 72.99887 600 ft 22 kts 216°
2026-05-01 08:37 31.36915 72.99768 600 ft 26 kts 216°
2026-05-01 08:37 31.36766 72.99642 603 ft 25 kts 216°
2026-05-01 08:37 31.36630 72.99524 603 ft 23 kts 217°
2026-05-01 08:38 31.36499 72.99412 603 ft 23 kts 214°
2026-05-01 08:38 31.36368 72.99301 602 ft 24 kts 216°
2026-05-01 08:38 31.36247 72.99197 601 ft 18 kts 216°
2026-05-01 08:38 31.36194 72.99142 600 ft 7 kts 259°
2026-05-01 08:39 31.36215 72.99093 602 ft 6 kts 306°
2026-05-01 08:39 31.36244 72.99046 602 ft 8 kts 305°
2026-05-01 08:39 31.36278 72.98989 602 ft 6 kts 305°
2026-05-01 08:39 31.36279 72.98942 602 ft 5 kts 222°
2026-05-01 08:40 31.36275 72.98910 602 ft 2 kts 310°
2026-05-01 08:40 31.36286 72.98896 602 ft 2 kts 311°
2026-05-01 08:40 31.36289 72.98891 602 ft 0 kts 310°